Volver al catálogo

FENGYUN 1C DEB

LostSSO
NORAD 31853·DEBRIS·🇨🇳 China

Lanzado May 10, 1999 desde Taiyuan Satellite Launch Center

Loading…

Próximos Pases (próximas 24 horas)

TLE

ObsoletoSource: Space-Track

Época: Oct 22, 2012, 18:31 UTC

1 31853U 99025CJT 12296.77196088  .00000808  00000-0  56122-3 0  9996
2 31853  99.0148 272.9740 0042449 141.6565 225.0087 14.01298154287315

Sigue FENGYUN 1C DEB en tiempo real con AllMySat

Download on the App Store